Погода в Иваново

Россия / Санкт-Петербург и Ленинградская область     60°31′32″N   30°11′22″E
темп.,
°C
ветер,
м/с
пор.,
м/с
влажн.,
%
обл.,
%
осадки,
мм/ч
давл.,
гПа
погр.,
м
1 августа, вс
вс100:00+16юз311825 0.1 1001450
03:00+14юз310977 0.1 1002355
06:00+16юз4993100 0.0 1002500
09:00+18юз4876100 0.1 1002666
12:00+16ююв4794100 9.4 1002464
15:00+22юз69509 9.8 10001502
18:00+22юз495488 0.1 10001834
21:00+16юз26921 0.7 1001228
2 августа, пн
пн200:00+15зюз4129614 0.0 1002587
03:00+14юз41196100 0.0 1003571
06:00+14юз3993100 0.0 1004534
09:00+17юз4774100 0.0 1004758
12:00+21юз4551100 0.0 10031500
15:00+22ююз344998 0.0 10021825
18:00+16ю3692100 1.2 1002218
21:00+15ююв2298100 2.8 100169
3 августа, вт
вт300:00+14зюз1197100 0.1 100012
03:00+14з2697100 1.1 1000168
06:00+13з249378 0.4 1000115
09:00+16зюз47865 0.9 1000695
12:00+20зюз585525 0.1 10011660
15:00+19зюз675651 0.1 10021548
18:00+16з5871100 0.1 1005933
21:00+14зсз38775 0.1 1007418
4 августа, ср
ср400:00+12зюз27745 0.0 1009152
03:00+9з23815 0.0 101151
06:00+10зюз11772 0.0 101214
09:00+17зсз24480 0.0 1013865
12:00+20зсз35315 0.0 10142420
15:00+22зюз242894 0.0 10142811
18:00+19ююз354399 0.0 1015738
21:00+14ююз22705 0.0 101634
5 августа, чт
чт500:00+11юз21745 0.0 101713
03:00+11юз117134 0.0 101711
06:00+12ююз117653 0.0 101711
09:00+16в1261100 0.0 1016234
12:00+20ююв234698 0.0 1016985
15:00+23ююв233658 0.0 10152315
18:00+17вюв2763100 0.0 1015212
21:00+16вюв257099 0.0 1015105